Theta_e
278 278 278 278 278 278 278 278 278 278 277 278 276 276 276 276 275 276 276 275 276 275 276 276 276 277 277 278 278 278 279 279 280 281 281 281 281 282 283 283 283 283 283 284 285 285 285 285 285 285 286 285 285 285 286 286 287 289 288 287 287 287 289 289 287 287 290 294 294 294 296 297 298 302 303 305 307 310 310 313 313 313 314 314 315
277 277 277 277 277 277 277 278 277 277 276 276 275 275 275 275 275 275 274 275 275 275 275 276 276 276 276 276 277 277 277 278 279 280 279 279 280 282 282 282 281 282 283 283 284 285 284 284 284 284 285 284 284 285 285 285 285 285 285 285 285 286 288 287 286 287 286 289 290 292 292 295 294 297 297 299 300 302 303 306 309 311 311 312 312
276 276 276 276 276 276 276 276 276 275 275 275 274 275 274 274 275 274 274 274 275 275 275 275 275 275 275 276 276 276 276 277 278 278 278 279 279 280 280 280 280 281 282 282 283 283 283 283 283 284 284 283 284 284 284 284 284 283 283 285 285 286 287 287 285 283 282 283 287 287 288 290 291 292 295 296 297 300 301 303 305 307 308 310 310
275 275 275 275 275 275 275 275 274 274 274 274 273 274 274 273 274 273 273 274 274 274 274 274 274 274 274 274 275 275 275 276 276 277 277 278 278 279 279 280 280 281 281 282 282 282 282 282 283 283 283 282 282 283 283 283 283 283 284 285 285 283 284 284 285 284 283 283 284 286 288 289 290 292 293 295 296 296 297 299 301 302 304 306 307
274 274 274 274 274 274 274 274 274 273 273 273 273 273 273 273 273 273 273 273 273 273 274 274 273 273 273 273 274 274 275 275 275 276 277 277 278 278 279 279 280 281 281 282 283 282 282 282 282 282 282 281 282 282 283 282 282 283 284 283 282 283 284 284 283 283 282 282 283 286 288 288 290 291 292 291 292 292 293 294 295 298 300 302 304
274 274 274 274 274 273 273 273 273 273 273 273 273 273 273 272 272 272 273 272 272 273 273 273 273 273 273 273 273 274 274 274 275 275 275 277 277 278 279 279 280 280 281 281 281 281 281 281 282 282 282 282 282 283 283 282 282 283 282 281 282 283 283 282 282 281 282 281 282 282 285 285 286 288 291 291 290 290 291 292 294 296 297 297 298
273 273 273 273 273 273 273 273 273 273 272 273 273 273 272 272 272 272 272 272 272 272 272 272 272 273 272 273 273 273 274 274 274 274 275 276 277 278 279 279 280 280 280 280 281 281 282 282 283 283 283 283 282 282 282 283 283 282 281 281 282 282 280 280 280 280 280 281 281 282 282 284 285 284 287 290 291 291 290 290 290 291 292 293 293
273 273 273 273 273 273 273 273 273 272 273 273 272 272 272 271 271 272 272 271 272 272 271 272 272 272 272 272 273 273 273 273 274 274 275 277 278 278 279 279 279 279 279 280 281 282 282 282 282 281 281 281 281 281 282 282 282 281 281 282 281 280 279 280 280 279 279 280 280 280 281 281 282 284 286 287 287 288 289 289 287 288 289 291 292
273 273 273 273 273 273 273 273 272 272 272 272 272 271 271 271 271 271 271 271 272 271 271 271 271 271 272 272 272 273 273 273 274 275 276 277 278 278 278 278 278 278 279 280 281 281 281 281 280 280 280 281 281 281 282 282 280 279 279 280 280 279 279 279 279 279 279 279 279 280 280 280 281 282 282 283 283 284 286 287 286 288 289 290 291
273 273 273 273 273 272 272 272 272 272 272 271 271 271 270 270 271 270 271 271 271 271 271 271 271 271 271 271 271 272 272 273 275 278 279 278 278 278 278 278 278 278 279 280 279 279 279 279 279 280 280 280 280 281 281 282 282 280 279 279 279 279 278 278 278 278 278 277 277 278 278 278 280 282 282 282 284 284 284 285 285 287 287 287 289
273 272 273 273 273 272 272 271 271 271 271 271 271 270 270 270 270 270 270 270 270 270 270 270 270 270 270 270 270 271 272 273 276 278 279 280 278 277 277 277 278 278 278 278 278 278 278 277 276 277 278 278 278 280 280 280 281 281 282 282 282 280 278 278 278 278 277 277 277 277 277 278 279 280 281 283 284 283 284 285 284 284 283 282 282
272 272 272 273 273 272 271 271 271 271 271 270 270 270 270 269 269 269 269 269 269 270 269 269 270 270 270 270 270 271 271 274 277 278 279 280 280 278 277 277 277 277 277 277 277 276 275 275 275 276 276 276 277 277 278 279 280 281 281 282 282 282 282 280 278 277 277 276 276 277 278 278 279 280 281 283 283 283 283 283 283 282 282 283 283
272 272 272 272 272 271 271 270 270 270 270 270 270 269 269 269 269 269 268 269 269 269 269 269 269 269 269 269 269 270 270 274 276 278 278 279 279 279 277 276 276 276 277 277 276 275 274 274 274 275 276 278 278 277 277 277 279 280 280 280 280 280 281 281 281 279 278 277 276 277 278 279 278 279 281 282 283 281 282 282 283 284 284 283 283
271 271 272 272 272 271 270 270 270 270 270 269 269 269 268 268 268 268 268 268 268 268 268 268 268 269 269 269 269 270 270 273 276 277 277 278 279 279 276 275 275 276 276 276 275 274 274 273 274 274 275 275 276 276 276 276 276 277 277 277 277 278 279 280 280 280 280 278 277 277 278 280 278 280 282 282 281 280 280 280 281 282 282 282 284
271 271 271 272 271 270 270 269 269 269 269 269 268 268 268 267 267 268 268 267 267 267 267 267 267 268 268 269 269 269 270 274 276 276 277 278 278 278 275 275 275 275 276 276 275 274 274 274 274 274 274 275 275 276 276 276 276 276 276 276 276 276 277 277 277 278 278 279 278 278 280 281 281 281 281 282 281 281 282 281 281 282 282 283 283
270 271 271 270 270 270 269 269 269 269 268 268 267 267 267 267 266 267 267 267 267 267 267 268 267 267 268 268 268 268 269 274 275 276 277 277 278 275 274 274 274 275 275 275 274 274 274 274 274 274 274 274 276 278 278 276 276 275 275 275 275 276 276 278 280 281 279 279 279 280 280 280 282 281 282 282 282 283 283 283 283 282 281 280 279
270 270 270 270 269 269 269 269 268 268 268 267 266 266 266 266 266 267 266 266 266 266 266 266 267 267 267 268 267 267 268 271 274 275 276 277 276 273 273 273 274 274 274 274 273 273 273 274 274 274 274 274 276 278 278 278 275 275 275 274 274 274 275 276 279 281 281 281 281 282 282 282 283 283 283 283 281 281 280 279 278 279 278 277 278
270 269 269 269 269 269 269 268 268 267 267 266 266 266 266 266 266 266 265 265 265 266 266 266 266 267 267 267 267 267 268 271 274 274 275 276 275 272 272 272 272 273 273 273 272 272 273 275 275 274 274 273 276 278 278 277 275 274 273 273 272 273 273 275 276 277 279 279 279 279 279 279 280 280 281 281 282 281 278 275 277 278 277 277 276
269 269 269 269 268 268 268 268 267 267 266 266 266 265 265 265 264 265 265 265 265 265 265 265 266 266 267 267 268 268 268 269 272 273 274 275 274 272 272 271 271 272 272 271 272 272 272 274 275 275 274 275 277 277 278 277 274 273 273 272 271 271 273 274 274 273 273 272 272 273 273 275 275 275 276 280 281 281 279 278 279 278 277 277 278
269 269 268 268 268 268 268 267 267 266 265 265 265 264 264 264 264 264 264 264 264 264 264 265 265 265 266 266 267 267 267 267 269 273 274 274 275 272 271 271 270 270 271 271 270 271 272 273 274 275 276 276 277 277 278 278 274 273 272 271 271 270 273 273 272 271 270 270 270 271 271 273 274 275 275 276 277 279 279 279 278 277 276 276 276
268 268 268 267 267 267 267 267 265 265 265 264 264 263 263 263 263 263 263 263 263 263 263 264 264 265 265 266 266 266 266 267 268 272 273 274 274 273 271 271 270 270 270 270 270 270 271 272 272 274 275 276 277 278 278 277 276 272 271 271 271 273 274 270 269 270 268 269 269 270 270 271 272 273 275 275 274 274 275 276 276 276 275 274 275
267 266 266 266 266 265 265 265 265 264 263 263 262 262 262 262 262 262 262 262 261 261 262 263 263 264 264 265 264 265 266 267 267 270 272 273 274 274 272 271 271 271 270 270 271 271 271 271 271 273 275 276 277 277 277 276 275 271 271 274 275 274 270 268 267 266 266 267 267 267 268 269 271 272 272 271 272 272 273 274 275 275 275 276 276
266 266 265 265 265 264 264 263 262 263 261 261 261 260 261 260 260 261 261 261 260 260 261 262 262 262 263 263 264 265 266 267 269 269 271 272 273 274 274 273 274 272 271 270 270 270 271 271 271 273 276 276 275 276 276 275 272 271 274 274 273 272 268 265 265 264 264 265 265 265 267 268 268 268 269 269 270 271 271 272 272 273 275 277 277
265 265 264 264 264 263 261 261 260 260 260 260 260 259 259 259 259 260 260 260 259 259 260 260 261 261 261 262 263 264 265 266 268 269 269 272 273 274 274 274 274 272 272 270 270 270 271 271 272 275 274 274 274 274 273 271 270 272 272 272 271 268 264 263 263 263 264 264 264 265 265 267 267 267 267 268 269 269 270 271 272 274 274 274 275
263 262 262 262 260 260 260 259 258 258 258 258 258 258 258 258 258 259 259 259 259 259 259 259 259 260 261 261 262 264 265 266 266 268 270 271 272 273 273 274 274 274 270 270 271 271 273 275 274 273 272 272 272 270 268 268 270 270 270 270 266 263 262 262 262 262 262 262 263 263 264 265 266 267 268 268 268 269 269 270 272 272 273 273 274
261 260 259 259 259 258 257 257 256 257 257 257 256 257 256 257 257 257 258 258 257 257 258 259 259 260 261 262 263 264 264 265 266 267 268 269 269 270 272 273 272 272 272 271 273 274 274 272 271 271 269 268 266 264 264 264 267 268 267 265 262 261 261 261 261 262 261 262 262 262 263 265 266 267 267 267 266 266 267 268 268 268 269 270 270
260 259 259 258 257 257 256 256 257 257 256 257 257 257 257 257 257 257 257 256 256 257 258 259 259 260 261 262 263 263 264 265 265 266 267 267 267 268 269 269 271 271 270 269 270 270 267 267 267 268 266 267 266 265 264 264 262 262 261 261 261 260 260 261 261 261 261 261 262 263 264 265 266 266 265 265 264 265 267 266 266 266 268 268 268
259 259 258 257 256 256 256 259 258 256 256 255 256 256 256 256 256 256 256 256 256 257 259 260 261 262 262 262 263 263 264 265 265 265 266 267 268 269 269 269 269 269 269 269 269 265 264 264 263 261 260 260 260 259 259 260 260 260 259 259 259 260 261 262 262 261 261 262 262 263 263 264 264 264 264 264 264 265 266 265 265 265 266 267 266
259 257 257 256 256 255 255 255 255 256 256 255 256 257 255 256 256 257 259 259 259 260 261 262 263 263 263 263 263 263 263 263 264 268 268 271 268 268 267 268 268 268 270 272 267 263 261 259 258 258 257 258 258 257 258 258 258 258 258 258 258 258 258 258 258 259 260 261 261 261 262 263 263 263 263 263 263 263 264 264 265 264 265 266 265
256 257 256 255 254 254 254 255 254 255 255 255 255 255 260 262 262 261 261 264 266 268 268 264 264 265 265 265 266 264 263 265 269 271 270 271 271 271 271 271 272 270 270 271 265 259 257 256 256 256 256 256 256 256 256 257 256 257 257 259 258 257 258 258 258 259 260 260 260 261 261 263 262 262 262 262 262 263 264 264 263 264 263 263 264
257 256 255 254 255 254 253 253 252 252 253 254 253 254 254 257 263 265 266 264 264 267 268 269 269 270 267 265 266 269 269 270 270 270 270 270 271 271 271 271 271 270 270 265 260 257 255 255 255 255 256 256 255 255 256 256 256 256 256 256 257 257 258 257 258 259 259 259 260 261 262 262 261 262 261 261 261 261 262 263 263 263 263 263 263
256 256 255 254 255 256 254 254 254 253 254 254 254 254 254 254 255 260 262 262 265 266 267 268 268 268 269 267 265 264 266 268 269 269 270 270 270 270 270 270 269 269 268 266 257 255 254 254 255 255 255 255 255 256 255 255 255 255 255 255 255 256 257 257 259 259 258 258 259 261 261 261 261 261 261 260 261 260 260 261 261 261 262 263 263
255 255 254 255 254 256 255 254 254 253 253 253 254 253 254 254 254 254 257 260 263 265 266 266 267 267 267 267 267 267 267 267 268 269 269 269 269 269 269 268 267 268 265 258 254 254 254 254 254 255 255 254 255 254 255 255 255 255 255 255 255 255 256 257 258 257 258 258 260 260 260 260 261 261 260 260 260 259 260 260 260 261 261 261 262
254 254 254 254 254 254 254 254 254 253 254 254 254 254 254 254 253 254 254 254 256 258 261 263 264 264 265 265 266 266 266 267 267 267 268 268 268 268 268 263 265 265 262 256 254 253 254 254 254 254 254 255 255 255 254 254 255 255 255 255 255 256 256 257 256 256 257 258 259 259 259 260 261 259 258 258 259 259 259 259 260 260 260 261 261
253 255 257 257 254 254 254 255 254 253 253 253 253 254 253 254 255 255 254 254 254 254 254 255 258 260 259 260 263 265 265 265 266 266 267 267 267 267 265 257 255 254 255 252 253 253 253 254 254 254 254 254 254 254 254 254 254 254 254 254 255 255 256 255 255 256 257 258 258 257 258 260 259 259 258 257 257 257 258 259 259 260 260 261 262
253 254 255 255 255 254 254 253 254 253 252 252 253 254 255 255 255 254 254 254 254 253 254 254 254 257 259 259 260 262 263 264 265 265 265 266 266 266 256 253 253 253 253 254 253 254 254 254 254 254 254 254 254 254 253 253 253 254 254 254 255 255 255 254 255 256 257 256 256 257 258 259 259 258 257 257 257 258 258 258 259 260 261 261 262
252 253 254 253 253 254 253 252 252 252 255 255 255 255 254 254 254 254 254 253 253 254 253 254 254 254 256 256 257 258 261 262 263 263 263 263 264 259 253 253 252 253 253 253 253 254 253 253 253 253 253 253 253 253 253 253 253 253 254 254 254 254 254 255 255 256 255 255 255 256 257 258 258 257 257 257 257 258 258 259 259 260 260 261 262
252 252 251 251 250 251 251 251 252 254 254 253 253 252 253 253 253 253 253 253 253 253 253 252 254 252 252 253 256 255 255 257 258 257 258 258 256 253 252 252 253 252 252 253 253 253 253 253 253 253 253 253 253 253 253 252 253 253 253 253 254 254 255 255 255 254 255 255 255 256 258 258 257 257 257 257 257 257 258 259 259 259 260 261 261
250 253 255 256 256 253 252 252 253 251 252 252 252 252 252 252 252 252 252 252 252 252 252 252 252 252 252 253 253 254 254 253 253 253 254 254 254 253 252 252 252 252 253 253 253 253 253 253 253 253 253 253 253 252 252 252 252 252 252 252 252 253 253 253 253 253 253 254 254 256 257 257 257 257 257 257 257 257 257 258 259 259 259 260 261
251 250 252 255 253 254 253 253 253 252 252 251 251 251 252 252 252 252 252 251 251 252 252 252 252 252 253 253 253 254 253 253 253 253 253 253 253 253 252 252 252 252 252 252 252 252 253 253 253 252 252 252 252 252 252 252 252 252 252 252 252 252 252 252 252 253 253 254 255 256 256 256 256 257 257 257 257 258 258 258 258 259 260 260 261
249 250 252 253 254 252 252 252 251 251 250 251 251 251 251 252 252 252 252 252 252 252 252 252 252 252 253 254 256 256 254 253 253 253 252 252 252 252 252 252 252 252 252 252 252 253 253 253 253 252 252 252 252 252 252 251 251 251 251 252 252 252 252 252 252 253 253 254 254 254 255 256 256 256 256 257 258 258 258 258 258 259 260 260 261
249 249 249 250 251 251 250 251 251 252 251 251 251 251 251 251 251 251 252 252 252 252 252 252 252 252 253 255 255 256 254 253 253 252 252 252 252 252 252 252 252 252 252 252 252 252 252 252 252 252 252 252 251 251 251 251 251 250 251 251 251 251 251 252 252 253 253 253 253 254 255 256 256 257 257 258 257 257 257 258 258 259 259 260 261
249 248 249 249 249 249 250 250 250 249 250 250 250 252 252 252 251 252 252 252 251 251 251 251 251 252 252 254 254 255 253 252 252 251 251 251 251 252 252 252 252 252 252 252 252 252 252 252 252 252 251 251 251 251 251 250 250 250 250 250 251 251 251 252 252 253 253 253 253 254 255 255 256 256 256 256 256 256 257 257 258 258 259 260 260
248 249 249 250 250 249 250 249 249 250 250 251 252 252 252 251 251 251 250 250 250 251 251 251 251 251 251 252 252 251 250 250 250 250 251 251 251 251 251 251 252 252 252 252 252 252 252 251 251 251 251 251 251 250 250 250 251 250 250 250 251 251 252 252 252 252 252 253 253 254 254 255 256 256 256 256 256 256 257 257 258 258 259 260 261
247 248 248 248 248 248 248 249 249 250 251 251 250 250 250 250 250 250 250 250 250 250 250 250 251 250 250 250 250 250 250 250 251 251 251 251 251 251 251 251 251 251 251 251 252 252 252 251 251 250 250 250 250 249 249 250 250 250 250 250 250 250 251 251 252 253 254 253 253 253 254 255 255 256 256 256 256 256 257 257 258 259 259 259 260
246 247 248 248 248 249 249 248 249 249 249 249 248 248 249 249 249 249 250 250 250 250 250 250 250 250 250 249 250 250 250 250 250 250 251 251 251 251 251 251 251 251 251 251 252 252 252 251 251 250 250 249 249 249 249 249 250 250 250 251 251 251 252 253 253 253 253 253 254 254 255 256 256 256 256 256 256 256 257 257 258 258 259 259 260
246 247 248 248 248 248 249 249 248 248 247 248 249 249 249 249 249 250 250 250 250 250 249 249 249 249 249 249 249 249 250 250 250 250 250 250 250 250 250 250 251 251 251 251 251 251 251 251 250 250 249 249 248 248 249 249 249 250 250 250 251 251 252 253 253 253 254 254 256 256 256 256 255 255 256 256 256 256 257 257 258 258 259 260 261
246 247 247 248 247 247 247 246 248 249 249 248 248 249 249 249 249 249 248 248 248 248 248 248 248 248 248 248 249 249 249 249 250 250 250 250 250 250 250 250 250 250 251 251 251 251 250 250 249 249 248 248 248 248 248 249 249 249 249 250 250 251 252 253 253 254 255 256 256 256 256 255 255 255 256 256 256 256 256 257 258 258 259 260 261
246 246 246 247 247 247 247 247 248 247 247 247 248 248 248 248 248 247 248 247 247 248 247 247 247 248 248 248 248 249 249 249 249 249 249 250 250 250 250 250 250 250 250 249 249 249 249 249 249 248 248 247 247 248 248 248 249 249 249 249 250 252 252 253 254 255 256 256 256 256 256 256 255 255 256 256 256 257 257 257 257 258 260 261 261
246 247 246 247 247 246 247 247 246 246 246 247 246 246 247 247 247 247 247 247 247 247 246 247 247 247 247 247 248 248 248 248 249 249 249 249 249 250 250 250 250 249 249 248 248 248 248 248 247 247 247 247 247 247 248 248 248 249 249 249 251 252 253 255 255 256 256 256 256 256 256 255 255 255 256 256 256 256 256 257 258 260 260 260 259
247 247 246 246 246 246 245 244 244 245 244 245 245 245 246 245 245 246 246 245 245 245 246 246 246 246 247 247 248 248 248 248 249 249 249 249 249 249 249 249 249 248 248 248 248 247 247 247 247 247 246 247 247 247 247 248 248 249 250 251 253 254 255 255 255 255 256 256 256 256 255 255 255 255 255 256 256 256 257 258 259 259 260 259 259
Wind_Speed
8 7 6 7 7 7 7 6 8 7 8 8 9 8 8 9 9 9 9 10 10 11 11 11 11 11 12 12 12 12 13 13 11 10 10 12 11 13 13 13 14 13 13 14 12 12 12 13 13 13 12 13 12 12 11 12 13 11 11 11 11 11 12 12 14 17 14 4 9 12 12 12 15 14 16 16 16 13 13 11 11 10 10 9 10
6 6 5 5 5 5 5 4 6 6 7 6 8 7 8 8 8 8 9 9 9 10 11 10 10 11 11 11 12 12 12 12 12 10 11 12 11 10 12 14 14 14 13 13 13 11 12 13 14 14 12 12 13 12 11 12 12 12 12 11 10 10 10 11 12 13 19 15 11 11 12 9 13 13 13 15 18 17 18 16 12 9 9 9 9
3 3 4 4 4 4 4 4 5 5 6 6 7 7 8 8 8 8 9 8 9 9 10 10 11 11 11 11 11 11 12 12 11 12 12 12 12 12 14 15 15 14 14 14 14 13 14 14 14 13 11 13 13 12 12 12 12 12 13 11 11 11 11 12 12 15 18 17 14 14 13 10 8 12 16 12 15 13 15 14 14 12 10 10 10
3 3 3 4 4 3 4 4 5 5 6 5 6 6 7 6 7 7 8 8 9 9 9 9 10 10 10 11 11 11 11 11 11 11 11 11 11 13 13 14 14 14 14 15 14 14 14 14 14 14 14 14 13 12 11 12 12 12 13 11 11 14 13 12 12 13 14 17 16 13 10 13 11 9 10 12 13 15 14 16 17 16 13 11 10
3 3 2 3 3 3 4 4 5 6 7 6 7 7 7 7 7 7 8 8 8 8 9 8 9 10 10 11 12 11 12 12 12 11 10 10 11 12 13 13 13 13 14 14 14 15 14 14 15 15 14 15 13 12 9 12 12 12 11 10 11 11 10 11 13 13 15 17 17 13 13 12 12 9 9 12 12 11 12 14 14 16 17 14 11
2 2 3 3 3 3 4 5 5 6 7 6 7 7 7 8 8 8 8 9 9 8 9 9 9 10 10 10 10 11 11 11 11 11 11 11 11 11 12 13 13 14 13 13 14 14 14 14 14 13 15 16 15 12 11 13 12 10 10 10 11 11 11 13 13 13 14 15 15 17 12 11 12 9 8 11 12 14 14 12 12 11 13 16 16
2 3 3 3 2 3 4 4 4 5 5 6 6 6 7 8 8 9 8 8 9 9 9 10 9 9 10 10 10 11 11 10 10 10 10 10 12 13 13 13 13 12 12 13 14 13 14 14 13 13 14 14 15 15 16 16 10 11 10 10 10 11 11 11 12 14 13 14 13 12 12 9 9 13 10 9 10 11 13 13 14 11 10 10 15
3 3 3 3 2 3 3 3 4 5 5 5 5 6 7 7 7 7 7 8 8 9 10 10 9 9 9 9 10 10 10 10 10 9 10 12 13 14 14 13 14 13 14 13 13 12 12 11 12 13 14 14 15 15 14 13 13 13 11 10 11 13 11 11 11 12 12 11 10 12 8 12 9 9 8 9 9 10 9 11 13 14 13 10 8
3 3 3 3 3 3 3 3 3 5 6 5 6 7 7 8 7 7 7 8 7 8 9 9 10 10 10 10 10 10 9 9 8 9 12 14 13 14 14 14 14 14 14 13 9 9 11 11 11 13 16 21 24 21 20 19 14 13 13 13 12 12 12 13 13 12 12 12 12 10 11 10 10 11 10 7 8 9 10 11 13 12 13 14 15
3 4 4 3 3 3 3 4 5 5 6 6 6 7 8 8 8 8 8 8 8 9 9 9 9 10 11 11 10 9 9 8 13 22 20 14 14 13 13 13 13 13 13 10 10 10 10 10 11 19 22 23 22 22 23 23 23 18 14 13 13 12 14 15 13 12 12 13 14 15 15 14 12 11 11 11 11 10 11 11 13 12 15 13 14
3 3 4 3 2 3 3 4 5 6 6 6 6 8 8 8 8 8 8 9 9 9 9 10 10 10 11 11 11 10 9 9 21 22 22 23 16 14 14 14 14 13 12 11 12 12 10 11 11 14 17 16 16 22 22 22 22 22 22 21 19 16 14 15 14 13 13 13 14 15 14 17 15 11 11 11 10 10 9 10 12 11 13 15 16
3 3 4 3 2 2 3 4 5 6 6 6 7 7 8 8 8 8 9 10 10 9 10 10 10 10 10 10 11 10 10 15 21 21 22 22 21 15 13 13 12 12 12 12 10 10 11 12 11 10 10 13 13 13 16 20 21 22 22 22 22 22 21 16 15 14 14 15 16 15 15 15 16 13 12 11 11 12 11 11 12 12 13 14 13
3 3 4 3 1 1 2 3 4 5 5 5 6 7 7 8 9 9 10 9 9 10 10 11 11 10 10 11 12 11 10 17 21 22 22 23 23 20 13 13 12 13 13 12 10 9 10 11 11 11 9 17 15 13 13 14 18 22 22 22 21 22 22 24 22 17 15 16 16 17 15 15 16 15 14 14 14 14 12 11 10 10 10 14 13
2 3 3 2 1 1 2 3 5 5 5 5 6 7 7 8 8 8 8 8 9 10 10 11 10 10 10 11 11 11 10 15 21 22 22 23 23 20 13 13 12 13 13 11 8 8 11 13 13 12 12 13 13 13 14 15 16 15 15 15 14 17 21 22 22 23 19 15 15 16 16 16 17 16 14 14 15 15 14 15 13 13 13 15 15
3 3 3 2 1 2 2 3 5 5 5 6 6 7 8 8 9 8 8 9 9 10 10 11 11 11 11 11 11 11 10 19 21 22 22 23 23 20 12 12 12 13 12 10 9 10 12 13 13 13 14 13 12 16 16 16 16 15 16 15 15 15 15 15 14 13 14 13 15 16 15 12 11 13 13 13 12 12 14 16 15 15 15 15 15
3 3 2 1 2 2 3 4 5 5 5 6 7 8 7 8 9 9 8 9 8 9 9 8 10 11 11 11 12 13 11 19 21 22 22 22 23 14 12 13 13 13 12 11 11 11 11 12 13 14 14 14 17 23 21 18 16 16 17 16 16 15 14 15 20 20 18 16 14 14 15 18 24 22 21 19 17 15 14 15 13 13 14 15 15
3 2 2 2 2 2 3 4 5 5 6 6 7 7 8 9 8 8 9 9 9 9 10 10 9 10 12 12 12 13 13 17 21 22 22 22 18 12 13 12 13 13 12 13 12 13 13 13 14 13 14 13 19 25 25 24 15 16 16 16 16 16 15 13 17 21 22 24 27 28 29 29 29 30 31 33 26 22 15 14 13 12 14 15 15
3 2 2 2 2 2 3 3 4 5 5 6 6 7 7 7 7 7 9 10 10 10 11 11 10 10 12 12 12 14 14 17 21 21 21 21 18 13 12 13 13 13 13 14 12 13 15 22 19 14 14 14 22 26 26 22 15 14 15 18 18 16 15 13 11 13 21 24 26 27 28 29 30 30 29 29 27 22 14 15 16 15 15 14 17
3 2 2 2 2 2 2 2 4 4 5 5 5 7 7 7 7 7 7 8 10 10 10 11 11 10 10 12 16 15 14 16 20 20 21 20 16 12 12 12 13 13 13 14 14 13 14 15 18 17 16 19 27 26 27 22 13 15 17 17 16 16 15 16 15 16 17 17 16 16 16 18 16 15 16 25 25 22 15 14 14 14 13 14 15
3 2 2 2 2 2 2 3 3 4 5 6 5 6 6 7 7 7 8 7 8 9 9 10 12 11 11 11 11 12 14 14 15 21 20 20 20 13 11 12 13 14 14 13 14 15 14 13 13 18 22 25 26 27 27 24 17 16 15 14 15 17 16 16 15 15 16 16 16 15 16 15 15 15 14 14 14 12 12 12 12 13 13 13 13
3 2 2 1 2 2 2 2 3 4 4 5 5 5 6 7 8 8 8 7 7 8 10 10 11 12 10 10 11 12 11 14 14 20 20 20 21 18 11 12 13 14 14 13 14 14 14 13 13 19 24 27 27 29 25 23 23 16 14 13 15 19 21 14 16 20 14 15 15 14 13 13 14 13 12 11 12 14 13 14 13 13 13 13 14
3 2 2 2 2 2 2 2 2 4 3 4 5 6 6 6 7 7 7 7 8 9 9 9 10 11 10 10 9 11 12 15 14 17 20 21 21 22 13 13 15 14 15 13 14 13 14 14 13 19 27 28 28 24 24 24 26 14 14 22 26 25 17 12 12 12 12 12 12 13 12 12 12 11 12 13 12 13 14 14 14 14 14 14 15
3 2 2 2 2 2 2 2 3 4 3 3 4 6 5 5 6 6 7 7 8 8 9 9 10 11 10 9 9 10 11 11 16 15 19 21 22 20 22 19 23 17 13 14 15 15 14 14 16 24 28 23 21 25 26 26 19 14 23 23 23 23 17 9 12 12 11 11 12 12 11 11 12 12 13 13 14 15 15 16 16 15 14 15 16
2 2 2 2 2 2 2 2 3 3 4 4 4 5 6 5 5 5 6 6 7 8 7 7 8 10 11 11 10 10 10 11 14 19 18 21 21 22 23 25 25 16 14 12 15 15 15 14 17 26 20 22 23 22 21 19 14 20 21 22 21 18 10 11 10 11 12 11 11 10 11 11 11 12 13 13 15 16 17 16 15 15 15 14 16
3 3 3 3 3 2 2 3 3 4 4 4 4 5 5 5 6 6 5 6 6 7 8 7 8 9 11 11 11 11 10 11 12 15 20 21 22 22 25 27 25 24 16 12 13 14 19 28 24 17 19 21 22 20 14 15 18 19 21 21 18 9 9 9 11 11 10 11 11 11 11 11 12 13 14 15 16 15 14 14 13 13 11 14 14
3 4 4 3 4 2 3 4 4 4 5 4 4 4 4 5 5 7 5 6 6 7 8 7 8 9 10 10 11 12 12 12 12 12 13 14 16 24 27 25 24 24 22 18 24 27 26 17 17 18 16 16 11 9 8 10 17 19 19 17 8 8 7 8 9 9 10 11 12 12 12 12 12 12 14 14 14 13 14 14 14 12 12 12 15
4 4 4 4 3 2 3 4 4 4 3 4 3 4 4 4 5 6 6 6 6 7 8 8 8 9 10 10 11 12 12 11 11 11 9 12 13 13 14 13 18 19 14 11 14 11 8 10 11 15 13 17 16 14 14 13 10 9 8 7 7 7 7 7 9 10 10 10 11 10 10 11 12 11 11 11 12 12 12 14 13 14 13 13 14
5 5 5 4 3 3 4 4 5 5 4 4 4 5 4 4 5 6 7 7 7 8 8 8 8 9 9 10 11 10 9 8 7 8 10 11 10 10 10 10 9 8 10 11 9 6 7 8 11 7 8 9 8 7 7 7 8 9 8 8 8 8 10 14 13 8 8 9 9 10 10 9 7 8 10 8 10 9 11 12 13 15 14 14 14
5 5 4 3 4 3 3 4 4 4 5 4 4 5 5 6 6 7 7 6 7 8 8 8 10 9 10 9 8 10 10 10 9 15 17 21 19 15 11 9 9 9 14 20 9 6 8 10 9 10 7 9 8 7 8 7 8 8 9 9 8 9 8 7 8 9 9 9 10 11 11 9 8 7 8 9 10 10 10 11 11 12 14 12 13
5 5 4 4 4 3 4 4 4 4 4 5 5 6 8 12 10 8 7 11 16 19 17 12 12 10 10 9 8 11 10 12 22 27 26 26 26 27 25 25 24 18 17 21 10 8 7 8 7 7 8 7 8 8 8 8 8 9 7 9 10 9 9 8 8 9 10 10 11 11 11 9 9 9 9 10 10 9 9 12 12 11 14 13 13
5 6 4 4 4 4 4 5 5 4 5 5 5 6 7 7 12 17 17 16 17 19 20 22 23 22 15 12 13 21 23 25 25 25 27 26 26 26 25 25 23 19 21 13 8 7 8 8 8 7 7 7 7 8 8 8 9 9 9 8 8 9 10 8 9 9 10 10 11 10 10 9 10 9 10 10 12 10 8 7 10 10 10 12 13
6 6 5 4 4 4 4 4 4 4 4 4 5 5 6 8 8 9 13 15 17 19 20 21 22 21 22 19 16 12 17 22 25 26 26 26 25 26 25 24 19 21 20 16 7 7 7 7 8 7 7 7 7 7 8 8 9 9 9 9 9 8 9 9 10 10 10 10 11 11 10 11 10 9 8 10 13 10 11 10 9 10 11 11 13
6 5 4 4 4 5 4 4 4 4 4 5 5 4 6 6 9 10 7 10 16 18 19 19 20 21 22 22 22 20 21 23 25 25 25 25 25 23 25 19 18 21 19 9 5 7 6 7 7 7 7 8 8 7 7 8 8 9 8 9 9 9 9 10 12 10 10 11 11 10 9 11 11 9 9 12 12 10 11 10 10 9 10 11 12
5 5 4 4 4 4 4 4 4 4 4 4 4 5 5 6 8 8 10 10 7 9 12 16 19 21 21 21 21 22 22 23 23 24 25 24 25 24 21 13 20 19 14 6 6 6 7 7 7 7 8 7 8 8 8 7 8 9 9 9 9 9 9 9 8 9 9 10 9 9 11 11 9 8 9 9 10 10 11 11 9 10 10 10 10
4 5 6 5 4 5 4 4 4 4 4 4 5 6 6 7 7 8 8 9 10 11 9 7 9 14 15 16 20 22 22 23 23 24 24 24 24 24 18 10 11 9 8 5 5 6 7 7 8 8 7 8 8 8 8 8 8 9 9 10 9 8 8 8 9 10 9 9 9 9 10 11 8 7 9 11 12 11 10 10 9 9 9 9 10
4 3 4 4 5 4 4 4 4 4 5 5 5 6 6 6 8 8 8 8 9 10 10 8 7 8 17 18 19 19 21 22 23 24 23 23 22 21 10 8 8 8 8 7 6 7 7 7 7 8 8 8 8 7 7 8 8 9 9 9 10 9 9 9 10 9 9 10 10 12 12 10 7 8 9 9 11 10 9 10 10 11 12 10 10
4 4 4 4 4 4 4 4 4 4 5 6 6 6 6 7 8 7 8 8 9 8 9 9 8 8 8 8 10 14 18 21 23 23 22 20 21 12 6 7 6 7 8 8 8 7 8 7 7 8 8 8 8 8 8 8 8 9 10 10 9 10 9 9 10 11 10 9 9 10 11 9 7 9 9 10 10 10 10 10 11 13 14 16 16
4 5 5 4 4 4 4 4 5 6 6 4 4 5 6 6 7 7 8 8 8 9 9 8 7 9 10 9 7 7 11 16 18 15 13 14 10 6 6 6 7 7 8 7 7 7 8 8 7 8 8 8 8 8 8 8 8 8 9 9 9 9 15 13 13 10 10 9 9 10 11 9 8 9 9 9 10 10 11 11 10 10 12 14 12
3 5 7 8 6 5 5 4 5 4 4 4 4 5 8 7 7 7 7 7 8 8 8 8 8 9 9 8 8 8 10 9 7 8 8 8 8 7 7 7 7 7 7 8 7 7 7 8 8 7 8 7 8 8 8 8 8 9 9 9 9 9 9 8 9 9 8 8 9 9 10 9 9 9 9 9 10 11 10 11 11 11 11 11 9
4 3 4 6 5 6 5 6 5 5 6 4 5 5 6 7 7 8 7 7 8 8 8 8 9 8 8 8 8 9 9 10 9 8 8 8 8 8 7 8 7 8 8 8 7 7 8 8 8 8 8 7 7 8 7 8 8 9 9 8 9 9 9 9 9 9 9 9 9 10 10 10 10 10 9 9 9 9 11 12 11 11 10 11 12
3 3 4 4 6 4 4 5 5 4 4 5 6 6 7 8 8 8 7 8 8 8 8 8 9 8 8 11 18 18 11 10 9 8 8 9 8 8 8 8 8 8 8 8 8 8 8 8 8 8 8 7 7 7 8 8 8 8 8 9 8 8 8 8 8 9 9 9 9 9 9 10 10 10 10 9 12 12 10 11 11 11 12 12 12
3 3 3 4 5 4 4 6 6 6 5 6 5 6 7 8 7 7 8 8 8 8 9 8 8 8 10 19 19 20 13 9 8 9 9 8 8 8 8 8 7 7 8 8 8 8 8 8 8 8 8 8 8 8 8 8 8 9 8 8 9 8 8 8 8 8 9 9 9 10 9 10 11 11 11 12 10 10 10 10 10 11 11 11 12
4 4 4 5 4 4 5 5 4 4 5 5 6 6 8 8 7 8 8 8 8 9 9 9 9 8 9 13 16 18 9 8 7 9 8 8 8 8 8 8 7 7 7 8 7 7 8 8 8 8 7 8 8 8 8 8 8 9 8 8 9 9 9 8 8 8 8 9 9 11 11 11 10 9 9 10 10 10 10 11 11 10 11 11 11
3 4 5 4 5 3 5 4 4 5 5 7 7 8 8 7 7 7 7 8 8 8 8 8 8 9 8 9 9 9 7 8 8 8 8 8 8 8 8 7 7 7 8 8 8 7 7 8 8 8 7 7 7 7 7 8 8 8 9 9 9 10 9 8 9 9 9 9 10 10 10 10 10 9 10 11 11 11 11 11 11 11 12 11 12
3 3 3 5 3 4 5 4 5 5 7 7 5 6 7 6 7 7 7 7 8 8 8 8 8 8 9 8 8 8 8 8 9 9 9 8 8 8 8 8 8 8 8 8 8 8 7 7 7 8 8 8 7 8 8 8 8 8 8 9 9 10 9 9 9 9 9 10 10 10 10 10 9 10 11 10 10 11 11 11 11 13 13 12 12
3 3 4 3 4 5 5 5 6 5 5 5 6 6 6 6 6 6 7 7 8 8 8 8 8 8 8 8 8 9 8 8 8 8 9 8 8 8 8 8 8 8 8 8 8 8 8 8 8 8 9 9 9 8 8 8 8 8 8 7 8 9 9 9 9 9 9 10 10 10 10 9 9 10 13 12 10 10 11 11 11 11 11 12 12
3 3 3 4 3 5 6 6 4 5 5 5 5 6 6 6 6 7 8 8 8 9 8 8 8 8 8 8 8 8 8 8 8 8 9 9 9 8 8 8 8 8 8 7 8 8 8 8 8 8 9 9 9 10 9 8 8 8 7 8 8 9 9 8 9 9 10 11 10 9 9 10 10 10 12 11 10 11 11 11 12 12 12 11 11
3 3 2 3 3 4 4 4 5 6 6 6 5 6 6 7 6 7 7 7 7 8 8 7 7 7 8 8 8 8 8 8 8 9 9 8 8 8 9 9 8 8 8 8 8 7 8 8 8 8 8 9 9 9 9 9 8 8 8 8 8 9 13 15 11 11 10 9 9 10 10 10 9 10 11 11 11 10 11 11 11 10 11 10 10
3 2 2 3 4 4 5 4 6 4 5 4 5 6 7 6 6 6 6 7 7 7 7 7 8 8 8 8 8 8 8 9 9 8 8 8 8 8 8 9 9 8 8 8 8 8 9 9 8 8 8 8 8 9 9 9 9 9 9 8 11 19 20 21 15 11 14 11 9 10 10 9 10 11 11 11 11 10 10 11 11 11 10 9 10
2 3 3 3 4 4 5 4 4 4 5 5 5 5 5 6 6 6 7 7 7 7 7 7 8 8 8 8 9 9 8 8 8 9 9 8 8 8 8 9 9 8 8 8 8 9 9 9 9 8 8 8 8 8 9 9 9 9 9 10 16 21 21 21 18 18 14 9 10 9 9 10 10 10 9 10 10 11 11 10 11 11 10 9 10
3 2 2 3 3 3 3 3 4 4 4 4 4 5 5 6 6 6 6 7 7 8 7 8 8 8 8 7 8 8 8 9 8 8 8 8 8 8 9 9 9 8 9 9 9 9 9 9 8 8 8 9 9 9 8 9 9 9 14 20 22 20 19 17 12 15 21 17 10 9 9 10 10 10 10 9 9 9 11 12 11 10 8 8 9
Wind_Direction
23 17 10 8 8 7 5 10 9 8 8 3 9 355 357 357 349 348 342 343 345 343 342 341 341 340 338 339 338 338 338 336 335 334 336 335 334 332 330 333 333 330 327 326 327 328 328 328 329 328 329 328 329 328 328 328 326 330 337 334 327 323 319 315 309 306 302 306 312 311 324 323 312 319 321 321 321 325 324 311 306 300 291 286 284
16 7 3 1 359 3 3 6 10 2 7 354 4 350 352 353 343 346 343 338 344 339 339 339 338 337 336 334 336 335 334 333 332 334 334 332 330 335 332 332 329 325 324 325 327 327 325 325 325 326 326 326 325 325 328 328 327 327 326 322 318 318 323 315 307 304 306 316 317 316 313 327 312 320 320 324 321 322 318 314 306 302 295 293 290
4 357 354 355 356 359 5 5 9 1 4 354 358 351 350 346 345 345 339 338 338 338 336 335 336 334 332 332 333 333 332 332 332 333 331 329 328 331 331 329 325 322 323 324 325 324 324 322 322 321 324 323 324 324 326 323 323 321 318 318 317 325 330 329 325 317 312 307 313 314 315 316 311 317 322 322 311 306 308 310 311 314 311 299 294
2 359 356 353 355 9 6 3 9 0 2 353 351 345 346 340 339 342 334 334 335 332 333 332 333 333 331 331 331 328 328 327 327 327 326 325 324 327 326 325 322 321 321 321 321 322 320 318 320 322 323 319 317 317 321 321 318 313 312 317 327 327 322 320 318 309 308 306 311 311 313 309 315 314 311 308 315 319 319 316 316 312 310 306 298
359 346 352 356 356 21 9 8 8 1 357 352 347 345 345 342 339 340 333 333 332 329 329 333 332 332 332 330 327 328 326 325 325 325 325 320 322 323 321 320 321 319 318 318 321 321 319 320 321 320 318 312 308 305 310 315 312 308 314 327 325 321 319 319 318 315 311 307 307 308 313 309 308 308 315 320 318 308 308 309 312 310 308 305 299
345 360 351 12 1 17 9 6 6 358 352 348 344 343 341 342 339 335 336 334 331 330 330 331 331 326 325 323 320 320 320 320 320 320 318 319 318 317 320 321 320 319 318 319 321 319 316 312 309 307 312 309 305 309 311 308 305 308 320 323 322 315 314 319 316 310 305 300 302 305 308 310 312 307 325 319 312 312 313 312 311 316 322 324 319
352 7 359 9 13 13 6 5 358 353 347 339 337 340 341 339 337 334 333 331 328 329 330 328 326 325 321 319 320 319 318 316 316 315 314 314 317 321 322 320 318 317 315 314 310 304 306 313 319 326 329 330 331 331 326 316 310 316 318 318 313 314 316 314 311 307 302 297 297 295 301 302 303 307 316 304 300 303 309 320 315 315 309 312 312
358 7 1 0 14 359 359 350 355 348 339 335 337 337 337 335 332 327 326 327 326 327 325 323 320 319 316 316 316 315 314 313 313 313 314 319 323 322 321 321 318 314 311 305 300 306 320 328 330 331 329 328 326 324 324 324 324 319 319 317 317 314 310 305 304 304 301 296 294 303 301 304 305 293 295 311 307 303 309 311 309 313 310 307 290
358 360 351 355 348 345 349 351 353 348 341 338 339 340 338 332 328 326 325 323 323 322 319 319 320 318 317 318 316 316 315 314 312 318 321 323 324 323 321 319 316 312 308 301 304 322 324 324 327 328 326 324 321 317 317 320 321 320 319 319 316 312 305 305 305 305 306 304 302 299 297 298 298 305 312 311 313 308 314 314 300 297 299 302 303
0 348 348 336 336 344 352 353 348 347 341 340 338 336 333 331 327 326 326 322 322 322 321 321 319 318 320 318 318 318 317 315 317 321 325 325 325 324 320 316 314 311 307 309 319 322 321 325 323 323 320 318 316 317 319 321 320 317 314 314 314 310 307 305 304 303 304 305 304 304 303 302 303 309 308 305 301 301 301 298 297 310 309 301 294
349 339 326 321 323 343 360 346 346 342 336 331 333 335 332 329 325 323 323 324 323 323 322 320 320 321 318 317 317 316 315 315 319 323 324 327 328 323 321 317 315 311 309 312 315 319 326 327 322 318 316 316 316 318 320 320 318 317 316 315 312 309 307 305 303 305 307 304 301 298 296 297 301 303 295 297 293 298 296 302 303 306 303 308 304
331 314 304 309 313 353 353 341 340 332 329 330 330 329 326 324 323 322 322 324 324 321 320 319 318 318 317 315 314 314 313 316 320 322 325 327 327 324 320 319 317 313 311 311 315 326 329 326 320 314 314 314 317 316 316 316 317 318 317 317 317 315 311 309 310 310 308 303 300 296 295 296 301 301 304 308 314 307 304 296 291 290 289 290 293
302 297 301 308 307 347 333 332 323 320 319 322 323 321 321 319 320 323 323 320 319 318 317 318 317 318 317 317 316 315 313 317 320 324 327 327 326 326 321 320 317 311 309 311 321 330 327 319 315 314 313 321 324 321 319 318 319 321 322 321 319 316 312 308 305 302 302 298 295 293 293 299 301 303 300 300 304 301 305 294 290 286 288 289 289
284 285 292 295 268 312 319 319 318 314 317 322 322 321 320 320 318 316 315 317 317 314 313 315 314 316 318 316 313 311 312 316 322 324 326 325 326 327 324 320 312 307 308 312 320 325 323 319 317 316 319 322 320 319 320 321 321 320 319 317 315 312 309 306 304 302 298 293 292 293 297 294 290 293 298 305 305 301 301 296 297 289 288 284 290
273 275 279 274 285 307 313 310 311 312 317 322 321 320 320 318 320 320 322 320 318 317 317 317 316 316 316 314 310 310 312 318 322 323 324 326 327 330 323 318 311 308 309 314 324 327 322 316 313 314 316 317 317 318 320 319 318 318 316 315 311 309 307 305 303 300 298 295 291 287 286 288 292 300 301 296 284 282 285 288 291 289 286 284 278
269 275 271 292 304 306 310 309 309 313 317 320 320 316 318 321 321 322 319 312 308 306 305 306 311 313 313 316 316 313 313 319 320 322 325 326 327 328 322 316 311 309 313 323 327 324 317 313 312 313 313 314 316 317 318 318 317 315 314 313 314 312 307 305 303 301 297 294 294 296 300 301 301 300 299 299 298 297 292 290 290 289 289 287 285
262 253 254 287 300 305 307 304 305 311 316 314 314 318 318 319 319 322 318 312 314 313 313 314 312 313 314 315 316 312 312 317 319 321 324 325 327 326 322 315 311 313 316 321 322 318 315 312 313 312 312 314 316 316 318 319 315 315 317 320 316 312 310 307 302 302 306 308 307 304 303 303 302 302 302 301 300 300 303 299 292 292 287 290 287
243 230 250 264 289 297 298 299 304 309 310 310 313 314 314 313 314 320 316 316 316 315 314 312 310 310 311 312 314 313 311 315 318 319 321 323 326 324 319 317 314 314 314 315 316 313 311 310 310 310 313 315 316 317 318 319 320 327 327 321 317 314 312 311 314 320 316 310 307 305 304 301 300 300 298 296 295 295 289 286 287 287 282 279 280
227 228 248 259 276 290 296 304 306 307 309 311 316 314 315 316 310 306 306 307 308 312 312 308 307 307 307 308 312 313 311 314 316 317 319 321 324 322 321 316 314 312 314 315 314 312 308 307 309 312 316 315 316 315 316 321 335 333 328 322 318 313 315 319 324 321 318 315 309 309 304 303 301 298 295 296 296 294 284 276 277 275 275 276 278
211 212 225 243 264 289 307 310 307 318 316 314 311 308 309 306 304 306 302 302 304 308 307 306 305 304 306 310 314 315 310 309 313 315 316 318 320 320 317 317 316 316 315 312 311 309 308 307 312 316 317 315 313 313 315 328 338 333 329 323 316 315 320 323 323 320 314 309 307 307 305 308 307 304 299 293 290 294 312 314 316 315 313 311 308
198 206 214 239 278 298 309 307 313 312 307 302 302 300 299 301 304 302 303 305 304 304 307 308 306 304 305 307 310 310 307 309 310 314 315 316 317 317 313 316 318 312 309 306 306 307 309 312 312 315 314 312 310 310 320 333 336 335 327 316 314 318 325 326 322 321 311 308 307 309 310 311 308 303 304 321 331 325 319 317 317 315 310 307 302
186 196 212 244 262 277 277 289 302 295 294 296 300 295 292 292 293 298 302 305 307 307 308 307 309 308 306 308 303 305 307 308 311 311 313 314 314 313 315 316 313 309 305 303 303 307 310 310 310 312 311 309 312 321 329 332 335 334 318 317 321 326 331 326 318 315 311 310 310 309 310 310 311 318 328 326 322 319 312 307 307 307 303 296 291
193 203 231 253 270 276 279 291 299 300 296 291 289 291 293 294 293 297 300 304 306 305 306 309 311 311 309 307 308 306 307 307 309 311 312 311 310 314 317 316 313 309 304 302 309 309 309 306 308 305 308 323 337 331 327 332 335 324 321 324 327 333 335 323 317 314 311 310 311 309 312 318 322 323 320 319 317 318 315 308 303 298 294 298 300
188 220 243 256 271 274 278 286 285 290 289 290 285 285 292 294 296 295 301 303 304 304 304 307 308 309 309 309 307 307 307 309 311 310 309 311 315 316 316 315 312 307 308 311 308 306 304 307 301 310 334 341 338 337 336 339 331 327 326 327 334 336 329 322 318 315 312 311 312 314 317 320 320 318 320 320 319 315 310 306 303 304 306 304 300
208 244 246 256 259 257 271 273 279 283 281 279 287 290 295 301 304 301 302 301 300 301 302 304 303 304 307 307 307 308 311 310 308 307 311 313 313 317 315 312 313 316 313 303 302 301 304 306 320 342 340 338 336 340 340 335 331 328 329 332 335 327 323 318 317 314 313 313 314 314 314 318 318 316 320 319 315 312 308 305 302 302 301 296 288
235 245 248 249 254 257 275 276 272 275 277 268 258 269 280 293 295 295 296 293 294 295 296 298 296 297 297 299 305 309 309 307 304 309 308 310 316 309 310 314 315 311 310 309 308 308 310 338 346 339 343 337 337 334 334 331 329 329 328 329 322 318 312 314 309 311 311 315 314 311 312 315 314 318 321 320 318 315 313 312 315 314 313 310 311
240 252 254 256 256 248 263 281 287 281 275 277 275 272 279 284 286 287 287 288 290 289 290 293 294 294 293 298 301 301 304 306 307 305 312 310 296 296 307 303 306 312 310 304 303 310 1 349 338 335 331 334 338 338 333 331 328 325 322 319 316 311 311 309 312 313 312 305 304 300 303 306 306 312 318 318 314 313 316 314 314 313 315 313 307
241 252 252 246 252 244 260 273 283 290 280 276 284 292 285 272 273 276 278 283 288 288 288 282 281 291 299 298 292 290 298 301 297 309 305 293 298 306 303 302 304 299 305 302 313 23 344 343 339 339 338 340 340 334 327 323 322 320 317 316 311 309 311 313 310 302 297 297 294 300 297 298 299 317 315 310 312 310 316 314 313 312 315 312 308
244 255 252 247 253 251 255 270 274 280 284 276 262 255 264 271 268 271 262 244 249 261 270 280 291 291 281 283 291 302 302 303 305 304 305 312 312 311 312 309 308 305 310 319 353 4 352 347 349 339 341 329 328 324 319 318 318 319 315 316 316 318 316 314 314 313 310 307 309 309 306 303 307 312 306 313 314 315 313 308 309 310 312 309 304
248 255 248 244 254 257 265 267 267 273 275 281 283 281 267 275 276 272 273 280 285 290 293 292 292 294 297 291 296 301 305 304 307 311 312 312 313 315 316 317 318 322 334 340 14 359 353 337 330 328 320 322 318 321 320 319 317 316 314 314 315 313 313 313 311 307 310 312 307 306 304 304 309 313 317 315 311 308 313 320 313 312 312 312 309
247 252 245 245 244 246 253 263 264 263 265 271 275 282 294 284 284 287 289 292 294 293 294 297 300 301 303 306 306 304 304 308 310 310 311 313 316 318 319 319 324 342 343 349 17 359 335 327 318 315 312 308 311 313 318 316 313 311 311 312 306 309 310 309 307 308 311 308 304 297 299 311 310 312 318 320 316 314 310 305 306 305 305 308 308
238 246 232 242 241 251 253 256 268 270 273 268 271 281 285 295 293 276 283 292 294 297 299 301 302 305 306 308 309 311 309 308 309 310 312 314 317 318 320 321 344 351 347 2 356 336 322 314 312 310 311 312 309 311 311 312 310 310 310 311 310 309 312 308 312 315 310 305 301 306 312 311 305 309 317 318 320 314 312 310 310 310 310 307 305
233 246 238 241 244 250 262 264 265 258 270 275 280 277 283 290 296 304 287 283 292 297 300 302 304 307 309 310 310 309 310 311 312 313 313 315 316 319 318 337 354 349 352 355 332 317 310 309 306 305 308 307 309 308 308 308 310 309 307 305 307 308 304 302 311 308 303 303 304 305 309 306 302 309 319 317 316 310 313 309 308 303 302 302 304
225 230 236 239 246 255 249 254 258 261 255 262 266 274 273 276 286 288 300 307 293 281 284 295 303 307 307 308 311 312 312 314 314 314 314 316 317 318 322 352 345 346 344 333 315 303 309 305 305 306 305 305 305 307 305 307 309 307 305 300 299 300 298 303 308 304 299 300 304 308 307 300 301 317 318 315 311 308 306 306 306 309 308 304 303
228 237 241 241 239 245 245 251 256 262 264 267 271 277 279 280 276 284 291 296 301 302 304 294 290 293 301 307 308 310 314 314 315 315 316 316 318 318 338 0 340 333 332 318 302 296 299 302 301 303 304 305 305 306 305 307 308 307 306 304 299 299 305 309 307 305 301 306 309 306 304 303 307 319 321 316 314 312 308 307 307 302 298 302 304
231 246 250 246 251 252 252 250 251 250 258 265 265 268 273 279 284 286 286 285 287 294 294 289 286 292 298 299 301 306 309 313 314 315 315 317 318 327 345 334 325 315 312 308 302 300 295 295 300 300 302 298 301 300 301 302 304 305 303 302 302 304 306 307 304 304 311 311 307 307 306 299 309 320 314 306 305 304 304 303 303 308 309 306 305
232 241 248 247 242 250 258 255 252 252 259 263 267 275 279 280 283 283 283 283 287 284 284 298 305 297 287 284 295 302 308 312 312 312 314 315 319 330 318 304 297 305 301 304 304 302 301 297 297 297 298 301 301 300 300 301 303 302 305 303 299 301 301 302 309 314 311 306 303 301 298 297 315 321 316 309 307 306 304 303 306 310 311 310 311
223 230 239 244 256 260 262 259 254 259 258 261 268 273 279 279 279 280 283 287 286 289 296 297 296 296 303 301 304 302 306 306 304 302 305 313 317 310 304 298 301 298 300 295 296 296 297 298 296 296 298 300 299 300 300 301 304 304 303 302 302 296 305 308 308 304 303 302 302 304 301 303 317 315 310 305 306 306 305 306 304 303 305 307 306
224 239 249 254 254 240 235 249 254 254 264 267 271 276 283 285 286 283 283 283 285 289 287 290 292 293 294 300 308 305 305 302 302 302 305 305 306 306 302 300 295 295 292 293 293 295 293 296 297 296 296 297 298 298 299 300 303 303 302 301 299 300 303 304 305 305 301 298 301 300 302 310 312 308 304 303 304 304 301 304 306 305 304 304 300
229 244 254 260 257 262 262 262 263 263 264 272 276 274 280 282 282 285 286 284 285 285 286 289 290 290 296 305 303 309 305 303 302 304 304 304 305 304 303 299 298 294 296 297 295 295 297 294 296 297 296 295 296 297 299 300 301 300 300 298 299 301 303 303 302 303 303 301 303 309 311 309 307 304 301 301 302 306 310 308 306 306 302 303 303
221 231 242 247 250 249 255 258 257 260 260 262 266 275 275 280 283 283 282 282 283 283 284 284 286 289 293 296 304 308 305 302 303 302 301 301 299 298 299 295 295 295 294 295 297 298 296 297 297 297 297 297 297 298 301 301 299 300 297 297 294 292 296 297 299 297 298 303 305 304 301 303 304 306 307 309 312 309 300 302 302 302 304 303 302
220 229 242 245 255 254 257 257 257 261 263 270 276 277 280 281 281 279 281 283 285 287 290 289 287 291 292 299 304 307 306 299 300 298 297 295 293 291 290 290 288 288 291 293 298 300 300 298 297 298 300 301 303 302 301 299 300 299 299 297 296 294 295 296 296 295 301 303 302 301 300 302 305 306 307 311 309 305 304 303 301 301 301 305 304
209 222 229 244 242 244 244 256 259 264 272 271 276 277 280 282 281 282 284 285 286 290 290 292 293 294 293 298 303 307 303 296 293 294 293 293 291 290 291 293 294 292 291 290 291 292 296 297 297 297 298 300 300 301 303 301 302 299 296 295 295 295 294 293 298 302 302 301 301 301 300 301 300 298 306 310 306 304 301 302 302 303 303 303 302
208 227 236 238 241 251 256 258 266 264 265 270 275 278 284 281 283 284 284 284 285 286 286 289 293 297 296 298 301 301 294 295 293 293 292 295 296 297 297 296 298 297 298 297 297 296 296 296 296 297 295 296 298 298 296 296 296 294 295 296 296 297 298 301 302 301 301 301 300 300 298 296 296 302 308 310 307 305 305 305 306 306 307 305 305
211 224 237 249 258 255 263 259 260 267 274 280 282 279 279 277 279 280 280 284 288 288 288 290 294 296 299 299 299 296 293 293 295 296 296 297 298 299 301 300 300 300 300 298 300 299 298 298 298 300 303 303 302 300 298 295 292 287 289 292 294 296 297 298 296 296 297 297 297 297 297 297 300 308 308 306 306 305 304 304 305 308 308 305 306
208 220 234 239 251 256 261 265 265 270 275 277 279 281 278 275 273 277 283 287 289 292 294 296 296 296 297 298 298 295 295 294 293 295 297 299 299 299 299 300 299 298 297 297 300 301 300 302 305 306 304 304 304 302 299 295 293 290 288 284 285 287 289 289 289 293 294 296 295 292 293 297 306 306 307 307 305 303 298 300 303 304 301 301 303
214 219 228 233 238 252 262 270 277 275 270 273 271 277 284 286 284 287 288 291 294 294 296 296 297 295 296 297 298 297 297 297 297 299 297 298 298 298 300 300 300 297 298 299 301 302 305 306 307 306 303 302 301 300 299 297 294 292 290 288 287 290 289 291 292 292 291 288 288 294 303 306 304 304 306 305 302 301 302 304 306 304 301 300 304
203 209 216 232 250 263 270 270 272 275 278 275 280 280 286 290 294 292 294 293 293 293 293 294 291 293 295 294 295 296 297 296 295 295 296 297 299 300 300 300 299 300 303 304 304 306 307 308 306 305 303 302 301 299 299 297 295 291 293 292 291 289 293 295 295 291 285 292 299 302 300 301 302 301 301 301 300 301 304 305 305 300 296 301 315
187 208 235 251 256 257 261 266 267 274 275 283 287 291 290 291 289 291 291 292 293 293 293 293 295 295 292 292 295 296 296 295 294 295 296 297 299 298 299 298 303 304 304 303 306 308 307 306 305 304 301 300 296 296 296 296 296 295 295 295 292 293 296 296 295 298 308 307 301 301 299 298 299 299 299 299 300 300 300 301 300 296 302 313 320
211 221 232 245 251 258 260 263 267 273 279 281 283 285 287 287 289 290 293 294 294 293 293 292 292 293 294 296 297 296 297 297 299 299 299 297 297 299 302 304 304 304 306 306 306 306 306 305 305 302 300 299 297 294 294 293 294 295 294 290 290 290 292 302 311 311 311 307 304 301 302 300 297 295 296 296 297 299 300 296 299 307 314 319 323
219 217 229 238 250 257 267 271 274 272 270 278 277 281 286 288 288 290 293 292 291 292 293 294 293 293 292 289 290 294 297 298 296 297 296 299 302 305 305 305 306 308 306 305 305 305 303 303 302 302 301 298 298 296 294 293 293 292 291 291 295 305 314 315 309 312 312 311 307 306 302 301 299 298 298 300 299 298 300 305 307 309 313 321 322